Time,TemperatureF,DewpointF,PressureIn,WindDirection,WindDirectionDegrees,WindSpeedMPH,WindSpeedGustMPH,Humidity,HourlyPrecipIn,Conditions,Clouds,dailyrainin,SoftwareType,DateUTC
2013-04-29 00:03:00,49.0,29.0,-100.00,SSE,150,2.0,7.0,45,-99.99,,,-99.99,,2013-04-29 04:03:00,
2013-04-29 00:13:00,49.0,28.0,-100.00,SSE,165,1.0,3.0,44,-99.99,,,-99.99,,2013-04-29 04:13:00,
2013-04-29 00:23:00,49.0,28.0,-100.00,SSE,165,1.0,3.0,44,-99.99,,,-99.99,,2013-04-29 04:23:00,
2013-04-29 00:33:00,48.0,28.0,-100.00,SSW,195,1.0,5.0,45,-99.99,,,-99.99,,2013-04-29 04:33:00,
2013-04-29 00:43:00,48.0,28.0,-100.00,ESE,110,2.0,5.0,45,-99.99,,,-99.99,,2013-04-29 04:43:00,
2013-04-29 00:52:00,48.0,28.0,-100.00,SSE,165,1.0,2.0,46,-99.99,,,-99.99,,2013-04-29 04:52:00,
2013-04-29 01:02:00,48.0,29.0,-100.00,South,175,1.0,6.0,47,-99.99,,,-99.99,,2013-04-29 05:02:00,
2013-04-29 01:12:00,48.0,30.0,-100.00,South,175,1.0,3.0,49,-99.99,,,-99.99,,2013-04-29 05:12:00,
2013-04-29 01:22:00,47.0,30.0,-100.00,SSW,210,0.0,5.0,51,-99.99,,,-99.99,,2013-04-29 05:22:00,
2013-04-29 01:32:00,48.0,32.0,-100.00,South,190,2.0,3.0,54,-99.99,,,-99.99,,2013-04-29 05:32:00,
2013-04-29 01:42:00,47.0,32.0,-100.00,South,170,1.0,6.0,55,-99.99,,,-99.99,,2013-04-29 05:42:00,
2013-04-29 01:52:00,47.0,33.0,-100.00,SSE,160,2.0,5.0,56,-99.99,,,-99.99,,2013-04-29 05:52:00,
2013-04-29 02:02:00,47.0,33.0,-100.00,South,170,1.0,6.0,58,-99.99,,,-99.99,,2013-04-29 06:02:00,
2013-04-29 02:12:00,47.0,34.0,-100.00,East,90,1.0,5.0,60,-99.99,,,-99.99,,2013-04-29 06:12:00,
2013-04-29 02:22:00,47.0,35.0,-100.00,South,175,0.0,5.0,62,-99.99,,,-99.99,,2013-04-29 06:22:00,
2013-04-29 02:32:00,47.0,35.0,-100.00,South,175,1.0,2.0,64,-99.99,,,-99.99,,2013-04-29 06:32:00,
2013-04-29 02:42:00,47.0,36.0,-100.00,South,185,2.0,3.0,66,-99.99,,,-99.99,,2013-04-29 06:42:00,
2013-04-29 02:52:00,47.0,37.0,-100.00,SSE,155,2.0,5.0,67,-99.99,,,-99.99,,2013-04-29 06:52:00,
2013-04-29 03:02:00,47.0,37.0,-100.00,South,190,1.0,6.0,68,-99.99,,,-99.99,,2013-04-29 07:02:00,
2013-04-29 03:11:00,47.0,38.0,-100.00,SSE,165,1.0,5.0,71,-99.99,,,-99.99,,2013-04-29 07:11:00,
2013-04-29 03:22:00,47.0,38.0,-100.00,SSE,155,1.0,6.0,71,-99.99,,,-99.99,,2013-04-29 07:22:00,
2013-04-29 03:32:00,46.0,38.0,-100.00,SSE,160,1.0,5.0,72,-99.99,,,-99.99,,2013-04-29 07:32:00,
2013-04-29 03:42:00,46.0,38.0,-100.00,SE,145,1.0,5.0,73,-99.99,,,-99.99,,2013-04-29 07:42:00,
2013-04-29 03:52:00,46.0,38.0,-100.00,SSE,160,1.0,2.0,73,-99.99,,,-99.99,,2013-04-29 07:52:00,
2013-04-29 04:03:00,46.0,38.0,-100.00,SSE,160,1.0,3.0,73,-99.99,,,-99.99,,2013-04-29 08:03:00,
2013-04-29 04:11:00,46.0,38.0,-100.00,SSE,150,1.0,3.0,74,-99.99,,,-99.99,,2013-04-29 08:11:00,
2013-04-29 04:22:00,46.0,38.0,-100.00,South,185,0.0,2.0,74,-99.99,,,-99.99,,2013-04-29 08:22:00,
2013-04-29 04:32:00,46.0,38.0,-100.00,South,180,1.0,2.0,75,-99.99,,,-99.99,,2013-04-29 08:32:00,
2013-04-29 04:42:00,45.0,38.0,-100.00,South,170,0.0,2.0,75,-99.99,,,-99.99,,2013-04-29 08:42:00,
2013-04-29 04:51:00,45.0,39.0,-100.00,SSW,200,0.0,1.0,77,-99.99,,,-99.99,,2013-04-29 08:51:00,
2013-04-29 05:01:00,45.0,39.0,-100.00,SE,140,0.0,2.0,78,-99.99,,,-99.99,,2013-04-29 09:01:00,
2013-04-29 05:12:00,45.0,39.0,-100.00,South,175,1.0,2.0,79,-99.99,,,-99.99,,2013-04-29 09:12:00,
2013-04-29 05:22:00,45.0,39.0,-100.00,SE,145,0.0,1.0,80,-99.99,,,-99.99,,2013-04-29 09:22:00,
2013-04-29 05:33:00,45.0,39.0,-100.00,SE,145,1.0,1.0,81,-99.99,,,-99.99,,2013-04-29 09:33:00,
2013-04-29 05:42:00,45.0,40.0,-100.00,SSE,150,1.0,2.0,82,-99.99,,,-99.99,,2013-04-29 09:42:00,
2013-04-29 05:53:00,45.0,40.0,-100.00,South,185,1.0,3.0,83,-99.99,,,-99.99,,2013-04-29 09:53:00,
2013-04-29 06:02:00,45.0,40.0,-100.00,South,180,1.0,1.0,83,-99.99,,,-99.99,,2013-04-29 10:02:00,
2013-04-29 06:12:00,45.0,40.0,-100.00,SSE,150,1.0,2.0,84,-99.99,,,-99.99,,2013-04-29 10:12:00,
2013-04-29 06:23:00,45.0,40.0,-100.00,SSE,150,1.0,2.0,84,-99.99,,,-99.99,,2013-04-29 10:23:00,
2013-04-29 06:32:00,45.0,40.0,-100.00,SE,145,1.0,3.0,84,-99.99,,,-99.99,,2013-04-29 10:32:00,
2013-04-29 06:42:00,45.0,41.0,-100.00,South,170,1.0,2.0,85,-99.99,,,-99.99,,2013-04-29 10:42:00,
2013-04-29 06:52:00,45.0,41.0,-100.00,SSE,165,1.0,5.0,85,-99.99,,,-99.99,,2013-04-29 10:52:00,
2013-04-29 07:03:00,45.0,41.0,-100.00,SE,145,2.0,3.0,86,-99.99,,,-99.99,,2013-04-29 11:03:00,
2013-04-29 07:12:00,46.0,42.0,-100.00,South,180,1.0,3.0,86,-99.99,,,-99.99,,2013-04-29 11:12:00,
2013-04-29 07:22:00,46.0,42.0,-100.00,South,190,1.0,3.0,85,-99.99,,,-99.99,,2013-04-29 11:22:00,
2013-04-29 07:32:00,47.0,42.0,-100.00,South,190,1.0,6.0,85,-99.99,,,-99.99,,2013-04-29 11:32:00,
2013-04-29 07:42:00,47.0,42.0,-100.00,SSE,155,2.0,5.0,84,-99.99,,,-99.99,,2013-04-29 11:42:00,
2013-04-29 07:52:00,47.0,43.0,-100.00,South,185,2.0,5.0,84,-99.99,,,-99.99,,2013-04-29 11:52:00,
2013-04-29 08:01:00,47.0,43.0,-100.00,South,190,2.0,6.0,84,-99.99,,,-99.99,,2013-04-29 12:01:00,
2013-04-29 08:12:00,49.0,44.0,-100.00,West,275,0.0,5.0,82,-99.99,,,-99.99,,2013-04-29 12:12:00,
2013-04-29 08:22:00,52.0,45.0,-100.00,SSE,160,1.0,3.0,77,-99.99,,,-99.99,,2013-04-29 12:22:00,
2013-04-29 08:32:00,52.0,45.0,-100.00,SSE,160,1.0,3.0,77,-99.99,,,-99.99,,2013-04-29 12:32:00,
2013-04-29 08:42:00,55.0,45.0,-100.00,SW,225,2.0,6.0,68,-99.99,,,-99.99,,2013-04-29 12:42:00,
2013-04-29 08:52:00,56.0,46.0,-100.00,WSW,240,2.0,7.0,68,-99.99,,,-99.99,,2013-04-29 12:52:00,
2013-04-29 11:01:00,62.0,46.0,-100.00,WSW,255,2.0,12.0,56,-99.99,,,-99.99,,2013-04-29 15:01:00,
2013-04-29 11:12:00,63.0,45.0,-100.00,WNW,300,5.0,7.0,52,-99.99,,,-99.99,,2013-04-29 15:12:00,
2013-04-29 11:22:00,64.0,44.0,-100.00,North,10,2.0,7.0,49,-99.99,,,-99.99,,2013-04-29 15:22:00,
2013-04-29 11:30:00,66.0,44.0,-100.00,SE,135,1.0,7.0,45,-99.99,,,-99.99,,2013-04-29 15:30:00,
2013-04-29 11:33:00,65.0,45.0,-100.00,WSW,255,5.0,9.0,48,-99.99,,,-99.99,,2013-04-29 15:33:00,
2013-04-29 11:43:00,64.0,44.0,-100.00,South,180,5.0,12.0,48,-99.99,,,-99.99,,2013-04-29 15:43:00,
2013-04-29 11:53:00,65.0,45.0,-100.00,South,180,5.0,9.0,48,-99.99,,,-99.99,,2013-04-29 15:53:00,
2013-04-29 12:03:00,65.0,45.0,-100.00,South,180,5.0,9.0,48,-99.99,,,-99.99,,2013-04-29 16:03:00,
2013-04-29 12:13:00,66.0,44.0,-100.00,SE,135,1.0,7.0,45,-99.99,,,-99.99,,2013-04-29 16:13:00,
2013-04-29 12:23:00,66.0,44.0,-100.00,SE,135,1.0,7.0,45,-99.99,,,-99.99,,2013-04-29 16:23:00,
2013-04-29 12:42:00,67.0,41.0,-100.00,West,265,5.0,12.0,39,-99.99,,,-99.99,,2013-04-29 16:42:00,
2013-04-29 12:52:00,67.0,39.0,-100.00,SSE,150,2.0,10.0,36,-99.99,,,-99.99,,2013-04-29 16:52:00,
2013-04-29 13:02:00,67.0,37.0,-100.00,South,190,1.0,8.0,33,-99.99,,,-99.99,,2013-04-29 17:02:00,
2013-04-29 13:12:00,68.0,39.0,-100.00,SW,230,6.0,10.0,35,-99.99,,,-99.99,,2013-04-29 17:12:00,
2013-04-29 13:22:00,68.0,39.0,-100.00,SW,230,6.0,10.0,35,-99.99,,,-99.99,,2013-04-29 17:22:00,
2013-04-29 13:32:00,68.0,38.0,-100.00,South,185,5.0,10.0,33,-99.99,,,-99.99,,2013-04-29 17:32:00,
2013-04-29 13:40:00,69.0,34.0,-100.00,WNW,295,2.0,12.0,27,-99.99,,,-99.99,,2013-04-29 17:40:00,
2013-04-29 13:42:00,68.0,36.0,-100.00,ESE,105,6.0,13.0,31,-99.99,,,-99.99,,2013-04-29 17:42:00,
2013-04-29 13:52:00,69.0,35.0,-100.00,South,190,3.0,10.0,29,-99.99,,,-99.99,,2013-04-29 17:52:00,
2013-04-29 14:01:00,69.0,35.0,-100.00,West,265,2.0,10.0,28,-99.99,,,-99.99,,2013-04-29 18:01:00,
2013-04-29 14:13:00,69.0,35.0,-100.00,West,265,2.0,10.0,28,-99.99,,,-99.99,,2013-04-29 18:13:00,
2013-04-29 14:22:00,69.0,34.0,-100.00,WNW,295,2.0,12.0,27,-99.99,,,-99.99,,2013-04-29 18:22:00,
2013-04-29 14:32:00,69.0,34.0,-100.00,WNW,295,2.0,12.0,27,-99.99,,,-99.99,,2013-04-29 18:32:00,
2013-04-29 14:52:00,70.0,34.0,-100.00,West,270,2.0,12.0,26,-99.99,,,-99.99,,2013-04-29 18:52:00,
2013-04-29 15:01:00,71.0,34.0,-100.00,WNW,285,6.0,14.0,26,-99.99,,,-99.99,,2013-04-29 19:01:00,
2013-04-29 15:12:00,70.0,35.0,-100.00,WSW,250,5.0,10.0,27,-99.99,,,-99.99,,2013-04-29 19:12:00,
2013-04-29 15:22:00,71.0,35.0,-100.00,East,90,3.0,9.0,27,-99.99,,,-99.99,,2013-04-29 19:22:00,
2013-04-29 15:32:00,71.0,35.0,-100.00,East,90,3.0,9.0,27,-99.99,,,-99.99,,2013-04-29 19:32:00,
2013-04-29 15:42:00,71.0,36.0,-100.00,South,185,2.0,13.0,27,-99.99,,,-99.99,,2013-04-29 19:42:00,
2013-04-29 15:52:00,71.0,33.0,-100.00,West,275,1.0,12.0,25,-99.99,,,-99.99,,2013-04-29 19:52:00,
2013-04-29 16:02:00,70.0,34.0,-100.00,South,185,7.0,13.0,27,-99.99,,,-99.99,,2013-04-29 20:02:00,
2013-04-29 16:12:00,70.0,33.0,-100.00,South,190,6.0,10.0,26,-99.99,,,-99.99,,2013-04-29 20:12:00,
2013-04-29 16:22:00,69.0,32.0,-100.00,South,175,7.0,15.0,25,-99.99,,,-99.99,,2013-04-29 20:22:00,
2013-04-29 16:32:00,70.0,32.0,-100.00,SSE,165,7.0,14.0,25,-99.99,,,-99.99,,2013-04-29 20:32:00,
2013-04-29 16:42:00,69.0,33.0,-100.00,SSE,155,3.0,12.0,26,-99.99,,,-99.99,,2013-04-29 20:42:00,
2013-04-29 16:52:00,69.0,32.0,-100.00,South,190,7.0,13.0,26,-99.99,,,-99.99,,2013-04-29 20:52:00,
2013-04-29 17:00:00,68.0,31.0,-100.00,SSW,200,3.0,12.0,25,-99.99,,,-99.99,,2013-04-29 21:00:00,
2013-04-29 17:02:00,69.0,30.0,-100.00,SE,130,3.0,10.0,24,-99.99,,,-99.99,,2013-04-29 21:02:00,
2013-04-29 17:11:00,69.0,31.0,-100.00,South,175,3.0,12.0,24,-99.99,,,-99.99,,2013-04-29 21:11:00,
2013-04-29 17:22:00,69.0,31.0,-100.00,South,180,3.0,13.0,24,-99.99,,,-99.99,,2013-04-29 21:22:00,
2013-04-29 17:33:00,69.0,31.0,-100.00,South,180,3.0,13.0,24,-99.99,,,-99.99,,2013-04-29 21:33:00,
2013-04-29 17:43:00,68.0,31.0,-100.00,SSW,200,3.0,12.0,25,-99.99,,,-99.99,,2013-04-29 21:43:00,
2013-04-29 17:53:00,68.0,31.0,-100.00,SSW,200,3.0,12.0,25,-99.99,,,-99.99,,2013-04-29 21:53:00,
2013-04-29 18:32:00,65.0,30.0,-100.00,South,185,3.0,12.0,26,-99.99,,,-99.99,,2013-04-29 22:32:00,
2013-04-29 18:42:00,65.0,30.0,-100.00,SSW,195,5.0,10.0,27,-99.99,,,-99.99,,2013-04-29 22:42:00,
2013-04-29 18:52:00,65.0,30.0,-100.00,SSW,195,5.0,10.0,27,-99.99,,,-99.99,,2013-04-29 22:52:00,
2013-04-29 19:02:00,63.0,28.0,-100.00,South,185,5.0,16.0,26,-99.99,,,-99.99,,2013-04-29 23:02:00,
2013-04-29 19:12:00,63.0,28.0,-100.00,South,185,5.0,16.0,26,-99.99,,,-99.99,,2013-04-29 23:12:00,
2013-04-29 19:22:00,62.0,27.0,-100.00,SW,220,2.0,9.0,27,-99.99,,,-99.99,,2013-04-29 23:22:00,
2013-04-29 19:32:00,61.0,27.0,-100.00,WSW,240,2.0,8.0,28,-99.99,,,-99.99,,2013-04-29 23:32:00,
2013-04-29 19:42:00,60.0,28.0,-100.00,SW,230,3.0,8.0,29,-99.99,,,-99.99,,2013-04-29 23:42:00,
2013-04-29 19:52:00,59.0,29.0,-100.00,SW,235,1.0,8.0,31,-99.99,,,-99.99,,2013-04-29 23:52:00,
2013-04-29 20:01:00,59.0,28.0,-100.00,SSW,195,2.0,7.0,31,-99.99,,,-99.99,,2013-04-30 00:01:00,
2013-04-29 20:11:00,58.0,29.0,-100.00,East,90,1.0,8.0,33,-99.99,,,-99.99,,2013-04-30 00:11:00,
2013-04-29 20:22:00,58.0,29.0,-100.00,SSE,165,1.0,7.0,33,-99.99,,,-99.99,,2013-04-30 00:22:00,
2013-04-29 20:30:00,56.0,28.0,-100.00,SSW,195,2.0,6.0,34,-99.99,,,-99.99,,2013-04-30 00:30:00,
2013-04-29 20:32:00,58.0,29.0,-100.00,SSE,165,1.0,7.0,33,-99.99,,,-99.99,,2013-04-30 00:32:00,
2013-04-29 20:42:00,57.0,27.0,-100.00,SSE,155,2.0,8.0,32,-99.99,,,-99.99,,2013-04-30 00:42:00,
2013-04-29 20:52:00,57.0,27.0,-100.00,SSE,155,2.0,8.0,32,-99.99,,,-99.99,,2013-04-30 00:52:00,
2013-04-29 21:02:00,56.0,29.0,-100.00,South,185,1.0,6.0,35,-99.99,,,-99.99,,2013-04-30 01:02:00,
2013-04-29 21:11:00,56.0,29.0,-100.00,South,185,1.0,6.0,35,-99.99,,,-99.99,,2013-04-30 01:11:00,
2013-04-29 21:22:00,56.0,28.0,-100.00,SSW,195,2.0,6.0,34,-99.99,,,-99.99,,2013-04-30 01:22:00,
2013-04-29 21:40:00,55.0,27.0,-100.00,South,180,1.0,5.0,33,-99.99,,,-99.99,,2013-04-30 01:40:00,
2013-04-29 21:42:00,56.0,26.0,-100.00,South,175,1.0,9.0,31,-99.99,,,-99.99,,2013-04-30 01:42:00,
2013-04-29 21:51:00,56.0,26.0,-100.00,South,175,1.0,9.0,31,-99.99,,,-99.99,,2013-04-30 01:51:00,
2013-04-29 22:01:00,56.0,25.0,-100.00,South,180,2.0,6.0,31,-99.99,,,-99.99,,2013-04-30 02:01:00,
2013-04-29 22:11:00,56.0,25.0,-100.00,South,180,2.0,6.0,31,-99.99,,,-99.99,,2013-04-30 02:11:00,
2013-04-29 22:20:00,54.0,27.0,-100.00,South,175,1.0,5.0,35,-99.99,,,-99.99,,2013-04-30 02:20:00,
2013-04-29 22:21:00,55.0,27.0,-100.00,South,180,1.0,5.0,33,-99.99,,,-99.99,,2013-04-30 02:21:00,
2013-04-29 22:32:00,55.0,27.0,-100.00,South,180,1.0,5.0,33,-99.99,,,-99.99,,2013-04-30 02:32:00,
2013-04-29 22:51:00,55.0,27.0,-100.00,SSW,195,2.0,6.0,34,-99.99,,,-99.99,,2013-04-30 02:51:00,
2013-04-29 23:01:00,54.0,27.0,-100.00,South,175,1.0,5.0,35,-99.99,,,-99.99,,2013-04-30 03:01:00,
2013-04-29 23:11:00,54.0,27.0,-100.00,South,175,1.0,5.0,35,-99.99,,,-99.99,,2013-04-30 03:11:00,